Location: Newark
(37.3144°N, 138.7950°E)
Time: 20:25:23
(UTC+00:00)

Envisat - Visible Passes

Search period start: 24 August 2019 00:00
Search period end: 03 September 2019 00:00
Orbit: 764 x 766 km, 98.1° (Epoch: 24 August)

Date Brightness Start Highest point End Pass type
(mag) Time Alt. Az. Time Alt. Az. Time Alt. Az.
25 Aug 6.0 10:29:12 10° WSW 10:31:20 13° W 10:33:29 10° WNW visible
26 Aug 5.2 09:49:52 10° SSW 09:54:16 30° W 09:58:41 10° NW visible
28 Aug 5.8 10:16:49 10° SW 10:19:59 16° W 10:23:08 10° NW visible
29 Aug 4.7 09:38:16 10° SSW 09:42:57 38° W 09:47:41 10° NNW visible
31 Aug 5.7 10:04:50 10° SW 10:08:37 21° W 10:12:27 10° NW visible
02 Sep 6.2 10:32:54 10° WSW 10:34:24 11° W 10:35:53 10° WNW visible
